Temperature
19 19 18 18 18 18 17 17 17 17 16 16 16 16 16 16 16 16 16 15 15 15 15 15 15 15 15 15 15 14 14 14 14 14 14 14 14 13 13 13 13 13 13
19 19 18 18 18 18 17 17 17 17 16 16 16 16 16 16 16 15 15 15 15 15 15 15 15 15 15 14 14 14 14 14 14 14 14 14 14 13 13 13 13 13 13
19 19 18 18 18 17 17 17 17 17 16 16 16 16 16 16 15 15 15 15 15 15 15 15 15 15 14 14 14 14 14 14 14 14 14 14 15 14 13 13 13 13 13
19 19 18 18 18 17 17 17 17 17 16 16 16 16 16 15 15 15 15 15 15 15 15 15 14 14 14 14 14 14 13 13 13 13 13 14 13 14 14 13 13 13 12
18 18 18 18 17 17 17 17 17 17 16 16 16 16 15 15 15 15 15 15 15 15 14 14 14 14 14 14 14 14 13 13 13 13 13 13 13 13 14 13 13 12 12
18 18 18 17 17 17 17 17 17 16 16 16 16 16 15 15 15 15 15 15 14 14 14 14 14 14 14 14 14 14 13 13 13 13 13 13 13 13 13 13 13 13 12
18 17 17 17 17 17 17 17 16 16 16 16 16 15 15 15 15 15 15 14 14 14 14 14 14 14 14 14 14 13 13 13 13 13 13 12 12 13 13 13 13 13 12
17 17 17 16 16 16 16 16 16 16 16 16 15 15 15 15 15 14 14 14 14 14 14 14 14 14 14 14 13 13 13 13 13 13 12 12 12 12 12 12 12 13 13
16 16 16 16 16 16 16 16 16 16 15 15 15 15 15 15 14 14 14 14 14 14 14 14 14 14 13 13 13 13 13 13 13 12 12 12 12 12 12 12 12 12 13
16 16 15 15 15 15 15 15 15 15 15 15 15 14 14 14 14 14 14 14 14 13 13 14 13 13 13 13 13 13 13 13 13 13 12 12 12 12 12 12 12 12 12
16 15 15 15 15 15 15 15 15 14 14 14 14 14 14 14 14 14 13 13 13 13 13 13 13 13 13 13 13 13 13 12 12 12 12 12 12 12 12 12 12 12 12
15 15 14 14 14 14 14 14 14 14 14 14 14 13 14 13 13 13 13 13 13 13 13 13 13 13 13 12 12 12 12 12 12 12 12 12 12 12 12 12 12 12 12
15 14 14 14 14 14 14 14 14 14 13 13 13 13 13 13 13 13 13 13 13 13 12 13 12 12 12 12 12 12 12 12 12 12 12 12 12 12 12 12 11 11 11
14 14 14 14 13 13 13 13 13 13 13 13 13 13 13 13 13 13 13 12 12 12 12 12 12 12 12 12 12 11 11 11 11 11 11 11 11 11 11 11 11 11 11
14 14 13 13 13 13 13 13 13 13 12 12 12 12 12 12 12 12 12 12 12 12 12 12 12 12 11 11 11 11 11 11 11 11 11 11 11 11 11 11 11 11 11
13 13 13 13 13 12 12 12 12 12 12 12 12 12 12 12 12 12 12 12 11 11 11 11 11 11 11 11 11 11 11 10 10 10 10 11 11 11 11 11 11 11 10
13 12 12 12 12 12 12 12 12 12 11 11 11 11 11 11 11 11 11 11 11 11 11 11 11 11 11 11 11 11 10 10 10 10 10 10 10 10 10 10 11 10 10
12 12 12 12 12 12 11 11 11 11 11 11 11 11 11 11 11 11 11 11 11 10 10 10 10 10 10 11 11 10 10 10 10 10 10 10 10 10 10 10 10 10 10
12 11 11 11 11 11 11 11 11 11 11 10 10 10 10 10 10 10 10 10 10 10 10 10 10 9 10 10 10 10 10 9 9 9 9 9 9 9 10 9 9 9 9
11 11 11 11 11 11 11 11 11 10 10 10 10 10 10 10 10 10 10 10 10 10 10 9 9 9 9 10 10 10 9 9 9 9 9 9 9 9 9 9 9 9 9
10 10 10 10 10 10 10 10 10 10 10 10 9 9 9 9 9 9 9 9 9 9 9 9 9 9 9 9 9 9 9 9 9 9 9 9 9 9 9 9 8 8 8
10 10 10 10 10 10 10 9 9 9 9 9 9 9 9 9 9 9 8 8 8 8 8 8 8 8 8 8 9 9 8 8 8 8 8 8 8 8 8 8 8 8 8
9 9 9 9 9 9 9 9 9 9 9 9 9 8 8 8 8 8 8 8 8 8 8 8 8 8 8 8 8 8 8 8 8 8 8 8 8 8 8 7 7 7 7
9 9 9 9 9 9 9 8 8 8 8 8 8 8 8 8 8 8 8 8 7 7 7 7 7 7 7 7 7 7 7 7 7 7 7 8 8 7 7 7 7 7 7
8 8 8 8 8 8 8 8 8 8 8 7 8 8 8 8 8 7 7 7 7 7 7 7 7 7 7 7 7 7 7 7 7 7 7 7 7 7 7 6 6 6 6
8 8 8 8 7 7 7 8 8 7 7 7 7 7 7 7 7 7 7 7 7 7 7 7 7 6 6 6 6 6 7 7 7 7 6 6 6 6 6 6 6 6 6
Wind_Speed
4 4 4 4 4 4 4 4 4 4 4 3 2 2 2 2 1 1 1 1 1 1 2 1 1 1 1 1 1 1 1 1 1 1 1 2 2 2 2 3 3 4 4
4 4 4 4 5 4 4 4 4 4 4 2 2 2 2 1 1 1 1 1 1 1 1 1 1 1 1 1 1 1 0 1 0 0 0 1 1 1 1 1 2 2 2
5 5 5 5 5 4 4 3 4 3 3 3 2 2 2 1 2 1 1 1 1 1 1 1 1 1 1 1 1 1 1 1 1 0 1 1 0 1 1 1 1 1 1
5 5 5 5 5 5 4 4 4 3 3 3 3 3 2 2 2 1 1 1 1 1 1 1 1 1 1 1 2 1 2 2 1 1 1 2 1 1 1 1 0 1 1
5 5 5 5 4 4 4 3 3 4 3 3 3 4 3 2 1 1 2 2 1 1 1 2 2 2 2 2 2 2 2 2 2 1 1 1 1 3 2 1 1 1 0
4 5 4 4 4 3 3 3 3 3 3 4 4 4 4 3 2 2 2 2 1 2 2 2 2 2 2 2 2 2 3 2 2 3 2 2 2 2 2 3 2 2 1
3 4 4 4 4 4 4 4 4 3 3 3 4 4 4 4 3 3 2 2 2 2 2 2 3 3 3 3 2 3 3 3 3 4 3 3 3 2 3 3 2 2 2
1 2 3 4 4 4 4 4 4 4 3 3 3 3 4 3 3 3 3 3 2 3 3 3 3 3 3 3 3 3 3 3 4 4 4 3 3 3 3 3 3 3 2
1 1 2 2 3 4 4 4 4 4 3 3 3 3 3 3 3 3 3 3 3 3 3 3 3 3 3 3 3 3 3 3 4 4 5 4 3 3 3 3 4 4 4
1 1 0 1 2 3 3 3 4 4 3 2 3 2 3 3 3 3 3 3 3 3 3 3 3 3 3 3 3 4 3 4 4 3 5 5 4 4 4 4 4 5 5
1 1 1 1 1 2 2 3 4 3 3 3 3 2 3 3 4 4 4 4 3 3 4 4 4 4 4 4 3 4 4 5 4 4 5 5 5 4 4 4 5 5 5
1 2 1 2 1 1 2 3 3 3 3 3 3 3 3 3 4 4 4 4 4 4 4 4 5 5 4 4 4 5 4 5 5 5 5 5 4 5 5 5 6 5 6
1 1 1 1 1 0 1 2 3 3 3 3 4 4 4 4 4 4 5 5 5 5 5 5 5 5 5 5 5 5 5 5 6 5 6 6 5 6 5 6 6 5 5
0 1 1 1 1 1 1 2 2 3 3 4 4 5 5 5 5 5 5 5 6 6 5 5 6 6 6 5 5 6 6 6 6 6 6 6 6 6 6 6 6 6 6
2 2 2 2 2 2 2 3 3 3 3 4 4 5 5 5 5 5 5 5 6 6 6 6 6 6 6 5 5 6 7 7 7 6 6 7 6 6 6 5 6 6 6
3 2 3 2 3 3 3 4 4 3 3 4 5 4 5 5 5 6 6 6 6 6 6 6 7 7 6 4 5 7 7 8 8 7 7 7 7 7 7 7 7 7 7
3 3 3 4 4 4 4 4 4 4 4 4 5 5 5 5 5 6 6 6 7 6 6 7 7 8 7 5 6 8 8 8 8 8 8 6 6 7 7 8 8 9 9
3 4 4 4 4 4 4 4 4 4 4 5 5 5 5 6 5 6 6 7 6 6 6 7 8 8 7 6 7 8 9 9 9 9 9 8 8 7 7 7 7 8 8
4 4 4 4 4 4 4 4 4 4 4 5 5 5 5 6 6 6 6 6 6 6 7 7 8 8 7 6 7 8 8 8 9 9 9 9 9 5 5 7 8 7 6
4 4 4 4 4 4 4 4 4 4 5 5 5 5 5 5 6 6 6 5 5 6 6 6 7 8 8 6 6 8 7 8 8 8 8 8 8 6 6 8 8 8 6
5 5 4 4 4 4 4 4 5 5 5 5 5 5 5 5 5 5 5 5 5 5 5 6 6 7 7 6 6 7 7 7 7 7 6 6 6 7 7 8 7 7 6
5 5 5 4 5 5 4 5 5 5 5 5 5 5 5 5 4 5 5 5 5 5 5 6 6 5 5 5 5 5 7 8 7 7 6 5 5 6 7 7 5 5 4
5 5 5 5 5 5 5 5 5 5 5 5 5 5 5 5 5 5 5 5 5 5 5 5 5 5 5 4 4 5 6 6 6 6 5 5 5 7 7 7 6 6 5
5 5 5 5 6 6 6 5 6 6 5 5 5 5 5 5 5 5 4 4 5 5 5 5 5 5 5 5 4 4 4 5 5 5 4 5 5 6 5 5 5 5 4
5 5 5 6 7 6 6 6 5 5 5 5 5 5 5 6 5 5 4 5 5 5 5 5 5 6 6 5 5 5 5 5 5 5 4 3 3 4 4 4 4 4 4
6 6 6 7 7 6 6 6 6 6 6 5 5 5 5 5 4 4 4 3 4 4 5 6 6 5 5 5 5 6 6 5 5 5 4 4 4 4 4 4 4 4 4
Wind_Direction
193 183 189 189 184 182 184 176 175 172 166 167 177 180 178 180 158 133 103 107 96 90 98 113 109 114 96 65 82 93 101 85 71 105 98 97 84 71 69 56 51 57 56
194 181 188 191 193 187 193 187 186 179 175 185 193 196 196 204 168 155 140 128 142 132 116 159 154 137 121 108 91 103 230 93 82 300 232 149 147 119 96 81 47 48 60
201 186 189 193 192 193 189 190 187 181 182 183 184 178 171 202 195 194 183 185 177 192 206 220 221 198 204 183 193 195 230 238 217 306 306 292 356 26 134 96 69 41 34
208 198 192 191 192 195 193 191 182 179 184 181 193 203 215 230 244 233 201 200 192 205 232 238 250 234 232 211 219 221 235 238 229 209 295 317 339 282 273 184 120 27 8
213 207 201 198 194 192 189 187 187 184 187 196 206 232 243 245 245 252 235 237 217 221 239 255 251 244 237 240 230 225 236 231 245 247 249 258 245 265 269 270 266 237 233
211 209 205 197 190 183 183 188 195 195 197 207 214 228 240 244 245 251 259 247 226 228 233 247 250 252 245 240 238 232 231 241 241 246 245 250 253 263 258 264 272 277 276
202 197 199 197 192 184 184 187 191 196 199 213 225 233 240 244 244 247 249 259 246 229 234 236 250 252 251 243 233 231 237 234 232 239 246 249 258 268 267 267 271 276 265
199 197 197 200 197 191 192 191 193 200 202 212 234 241 233 238 246 244 247 246 259 254 241 233 244 250 246 238 229 237 238 241 236 237 241 250 252 252 254 257 262 264 254
81 204 206 202 201 200 203 200 195 199 206 217 231 244 239 236 240 243 246 246 255 267 256 238 240 241 240 240 233 239 237 241 242 243 240 244 250 251 253 253 252 260 267
59 70 109 202 208 207 211 207 202 202 204 219 231 240 248 242 239 241 242 248 252 252 257 244 238 236 236 237 238 246 248 245 243 250 250 247 250 249 246 250 252 255 262
46 56 82 141 173 191 202 202 206 213 222 229 236 239 241 249 241 239 244 250 254 247 252 252 242 237 237 236 233 241 246 249 250 245 247 248 251 248 244 244 243 245 250
44 53 73 98 122 171 215 216 215 222 231 236 239 240 244 248 247 244 245 248 251 252 252 252 245 239 239 240 240 241 244 250 256 256 254 250 243 248 249 242 240 241 244
35 60 82 90 76 356 269 245 234 237 239 240 241 241 244 251 251 249 246 247 248 250 249 249 249 244 242 243 245 246 246 249 254 256 256 255 247 244 245 244 245 246 245
315 19 20 13 358 334 301 288 272 256 251 247 248 249 250 252 252 251 249 247 247 248 248 248 250 247 243 242 246 249 251 253 254 254 254 255 254 253 249 244 246 247 246
303 321 334 339 333 325 317 306 294 283 265 258 260 259 260 259 259 254 250 247 245 247 249 250 250 249 246 247 252 254 255 256 255 254 253 255 259 272 263 253 249 249 248
303 312 318 322 319 317 318 317 310 298 281 269 270 271 265 262 261 258 253 249 246 245 248 251 250 249 248 244 252 259 258 258 257 258 257 256 249 254 253 256 261 259 254
314 308 309 315 316 317 316 311 309 301 287 280 277 273 268 263 262 262 257 250 247 246 245 249 251 253 251 232 238 247 257 259 260 261 261 259 254 247 251 245 239 242 247
321 322 319 317 317 316 315 314 311 302 297 292 284 277 269 263 264 262 260 254 250 247 248 251 252 256 254 234 237 242 250 257 257 257 259 259 257 248 251 253 250 247 240
317 322 320 316 314 315 315 313 314 314 308 302 297 285 274 269 265 264 263 261 256 253 253 255 256 257 254 236 235 243 255 256 259 259 258 259 256 242 242 248 250 251 248
322 321 320 317 314 314 311 306 306 308 307 306 302 298 285 272 265 263 264 264 259 258 259 258 257 260 263 251 241 249 256 256 258 258 256 253 254 250 232 242 245 246 249
321 318 315 315 317 315 305 301 305 305 306 304 302 300 296 283 272 270 267 264 263 263 263 264 264 266 269 261 246 247 254 258 258 257 255 253 231 236 229 241 244 249 254
321 319 311 311 314 310 300 298 302 307 307 302 300 301 300 295 283 277 273 269 265 264 265 265 267 273 274 276 260 246 255 266 262 259 258 254 232 231 228 233 240 244 245
313 316 310 308 309 306 298 295 300 303 301 298 301 303 300 297 287 279 274 274 269 265 268 270 273 279 281 278 267 252 249 260 263 265 264 255 233 226 225 223 223 221 228
308 310 305 303 307 310 305 299 301 298 294 296 298 296 294 294 290 281 272 264 263 262 265 273 277 281 279 278 277 278 273 260 262 266 253 233 228 230 237 228 219 224 231
305 306 303 303 305 308 308 307 304 299 294 296 298 296 293 291 288 276 270 263 263 266 266 272 274 277 279 289 302 288 281 279 276 276 265 254 237 227 229 226 224 223 220
309 310 309 304 303 307 308 307 303 297 295 298 300 299 297 295 292 286 283 279 260 269 272 269 267 276 283 284 279 281 283 280 269 259 246 243 235 229 222 221 223 223 220
Height
1537 1538 1539 1539 1540 1541 1541 1542 1542 1543 1543 1544 1544 1545 1545 1545 1545 1545 1545 1545 1545 1545 1545 1545 1545 1544 1544 1544 1543 1543 1543 1542 1542 1542 1542 1541 1541 1540 1540 1539 1539 1539 1538
1536 1537 1537 1538 1539 1540 1541 1542 1542 1543 1543 1543 1544 1544 1545 1545 1545 1545 1545 1545 1545 1545 1545 1545 1544 1544 1543 1543 1543 1542 1542 1542 1542 1542 1542 1542 1542 1540 1540 1539 1539 1539 1538
1533 1535 1536 1537 1538 1539 1540 1541 1541 1542 1542 1543 1543 1544 1544 1544 1544 1544 1544 1544 1544 1544 1544 1544 1543 1543 1543 1542 1542 1541 1541 1541 1541 1541 1542 1542 1541 1541 1541 1540 1539 1538 1538
1531 1533 1534 1535 1536 1538 1539 1540 1540 1541 1542 1542 1542 1543 1543 1543 1543 1543 1543 1543 1543 1543 1543 1543 1542 1542 1542 1541 1541 1541 1541 1540 1541 1540 1540 1541 1541 1541 1540 1540 1539 1538 1537
1529 1531 1532 1533 1535 1536 1537 1538 1539 1540 1540 1541 1541 1542 1542 1542 1542 1542 1542 1542 1542 1541 1541 1541 1541 1541 1540 1540 1540 1539 1539 1539 1539 1539 1539 1539 1539 1540 1540 1539 1538 1538 1537
1527 1529 1530 1532 1533 1534 1535 1536 1537 1538 1538 1539 1540 1540 1540 1540 1540 1540 1540 1540 1540 1539 1539 1539 1539 1539 1539 1538 1538 1538 1537 1537 1538 1538 1538 1538 1538 1538 1538 1538 1537 1537 1536
1525 1526 1528 1529 1530 1531 1532 1533 1535 1535 1536 1537 1538 1538 1538 1538 1538 1538 1538 1538 1538 1538 1537 1537 1537 1537 1537 1536 1536 1536 1536 1535 1535 1536 1536 1536 1536 1536 1536 1536 1536 1535 1535
1524 1525 1526 1527 1528 1529 1530 1531 1532 1533 1534 1534 1535 1536 1536 1536 1536 1536 1536 1536 1536 1536 1535 1535 1535 1535 1535 1534 1534 1534 1534 1534 1534 1533 1533 1534 1534 1534 1534 1535 1534 1534 1533
1523 1523 1524 1524 1525 1526 1527 1528 1529 1530 1531 1531 1532 1533 1533 1533 1533 1533 1533 1533 1533 1533 1533 1533 1533 1533 1532 1532 1532 1532 1532 1531 1531 1531 1531 1531 1531 1531 1532 1532 1532 1533 1531
1522 1522 1522 1522 1523 1524 1525 1526 1527 1528 1528 1529 1529 1530 1530 1530 1530 1530 1530 1530 1530 1530 1530 1530 1530 1530 1530 1530 1530 1529 1529 1529 1529 1528 1529 1528 1529 1528 1528 1529 1529 1530 1530
1521 1521 1521 1521 1521 1522 1522 1523 1524 1525 1526 1526 1526 1527 1527 1527 1527 1527 1527 1527 1527 1527 1527 1527 1527 1527 1527 1527 1527 1526 1526 1526 1526 1526 1526 1525 1525 1525 1525 1526 1526 1526 1527
1520 1520 1519 1519 1519 1520 1520 1521 1521 1522 1522 1523 1523 1523 1524 1524 1524 1524 1524 1524 1524 1524 1523 1523 1523 1523 1523 1523 1523 1523 1523 1523 1523 1523 1523 1522 1522 1522 1522 1522 1522 1523 1523
1519 1519 1518 1518 1518 1518 1518 1518 1518 1518 1519 1519 1519 1520 1520 1520 1520 1520 1520 1520 1520 1520 1520 1520 1520 1520 1520 1520 1520 1520 1520 1520 1520 1519 1519 1519 1518 1518 1518 1518 1519 1519 1519
1518 1518 1517 1517 1516 1516 1516 1515 1515 1515 1515 1515 1516 1516 1516 1516 1516 1516 1516 1516 1516 1516 1516 1516 1516 1516 1516 1516 1516 1516 1516 1516 1516 1516 1515 1515 1515 1515 1515 1514 1515 1515 1515
1517 1516 1516 1515 1514 1514 1513 1513 1512 1512 1512 1512 1512 1512 1512 1512 1512 1512 1512 1512 1512 1512 1512 1512 1512 1512 1512 1512 1512 1512 1512 1512 1512 1511 1511 1511 1510 1510 1510 1510 1511 1511 1511
1515 1515 1514 1513 1513 1512 1511 1510 1509 1508 1508 1508 1507 1507 1507 1507 1507 1507 1507 1507 1507 1507 1507 1507 1507 1507 1507 1507 1507 1507 1507 1507 1507 1507 1507 1506 1506 1506 1506 1506 1506 1506 1507
1514 1513 1513 1512 1511 1510 1509 1507 1506 1505 1505 1504 1503 1503 1503 1503 1503 1503 1502 1502 1502 1502 1502 1502 1503 1503 1503 1503 1503 1503 1503 1503 1502 1502 1502 1502 1501 1501 1501 1501 1501 1501 1502
1512 1511 1510 1510 1509 1507 1506 1505 1504 1502 1501 1500 1499 1499 1499 1498 1498 1498 1498 1498 1498 1498 1497 1497 1498 1498 1497 1497 1498 1498 1498 1497 1497 1497 1497 1497 1496 1496 1496 1496 1496 1496 1497
1511 1510 1509 1507 1506 1504 1503 1502 1501 1500 1498 1497 1496 1495 1495 1494 1494 1493 1493 1493 1493 1492 1492 1492 1492 1492 1492 1492 1493 1493 1493 1492 1492 1492 1492 1491 1491 1491 1491 1491 1491 1491 1491
1509 1508 1506 1505 1503 1502 1501 1499 1498 1497 1495 1494 1492 1491 1491 1490 1489 1489 1489 1488 1488 1488 1487 1487 1487 1488 1487 1487 1487 1488 1487 1487 1487 1487 1486 1486 1486 1486 1486 1486 1486 1485 1486
1506 1505 1504 1503 1501 1499 1498 1497 1495 1494 1492 1490 1489 1488 1487 1486 1485 1485 1484 1484 1483 1483 1482 1482 1482 1482 1482 1482 1482 1482 1482 1481 1481 1481 1480 1480 1480 1480 1480 1481 1480 1480 1481
1504 1503 1501 1500 1499 1497 1496 1494 1492 1491 1489 1487 1486 1484 1483 1482 1481 1481 1480 1480 1479 1479 1478 1478 1477 1477 1477 1477 1476 1477 1477 1476 1476 1475 1474 1474 1474 1474 1474 1475 1475 1476 1476
1502 1500 1499 1497 1496 1494 1493 1491 1489 1487 1485 1484 1482 1481 1480 1478 1477 1477 1476 1475 1475 1474 1473 1473 1473 1472 1472 1472 1472 1471 1471 1471 1470 1469 1468 1468 1468 1468 1469 1469 1470 1470 1471
1500 1498 1496 1494 1493 1491 1490 1488 1486 1484 1482 1481 1479 1477 1476 1474 1473 1472 1471 1471 1470 1470 1469 1469 1468 1468 1468 1467 1467 1466 1466 1465 1464 1464 1463 1463 1463 1463 1463 1464 1464 1465 1465
1497 1496 1494 1492 1490 1488 1486 1484 1483 1481 1479 1477 1476 1474 1472 1470 1468 1466 1466 1466 1466 1465 1465 1464 1465 1464 1463 1462 1462 1461 1460 1460 1459 1459 1458 1458 1457 1457 1457 1458 1459 1460 1460
1495 1493 1491 1489 1487 1485 1483 1481 1480 1478 1476 1474 1472 1470 1468 1465 1463 1462 1462 1461 1461 1461 1461 1461 1461 1459 1459 1458 1457 1456 1456 1455 1454 1454 1452 1452 1452 1452 1452 1453 1454 1455 1455